This is the latest recevied weather packets stored in our database for station/object KB0BS-13. If no packets are shown the sender has not sent any weather packets the latest 10 day(s).
| Time | Temp. | Humidity | Pressure | Rain* | Wind** | Luminosity | Snow |
|---|---|---|---|---|---|---|---|
| 1777515672 | 1.67° C | 84% | 1015.5 hPa | 0 mm | - | 0 W/m² | - |
| 1777515370 | 1.67° C | 86% | 1015.7 hPa | 0 mm | - | 0 W/m² | - |
| 1777515065 | 1.67° C | 85% | 1015.8 hPa | 0 mm | - | 0 W/m² | - |
| 1777514762 | 1.11° C | 85% | 1015.7 hPa | 0 mm | - | 0 W/m² | - |
| 1777514459 | 1.11° C | 83% | 1015.8 hPa | 0 mm | - | 0 W/m² | - |
| 1777514156 | 1.67° C | 82% | 1015.9 hPa | 0 mm | - | 0 W/m² | - |
| 1777513853 | 1.67° C | 82% | 1015.8 hPa | 0 mm | - | 0 W/m² | - |
| 1777513550 | 1.67° C | 82% | 1015.8 hPa | 0 mm | - | 0 W/m² | - |
| 1777513247 | 1.67° C | 82% | 1015.8 hPa | 0 mm | - | 0 W/m² | - |
| 1777512943 | 2.22° C | 82% | 1015.8 hPa | 0 mm | - | 0 W/m² | - |
| 1777512639 | 2.22° C | 81% | 1015.7 hPa | 0 mm | - | 0 W/m² | - |
| 1777512033 | 2.78° C | 80% | 1015.7 hPa | 0 mm | - | 0 W/m² | - |
| 1777511732 | 2.78° C | 79% | 1015.7 hPa | 0 mm | - | 0 W/m² | - |
| 1777511428 | 2.78° C | 78% | 1015.5 hPa | 0 mm | - | 0 W/m² | - |
| 1777511125 | 2.78° C | 77% | 1015.6 hPa | 0 mm | - | 0 W/m² | - |
| 1777510518 | 3.33° C | 75% | 1015.7 hPa | 0 mm | - | 1 W/m² | - |
| 1777510214 | 3.33° C | 75% | 1015.8 hPa | 0 mm | - | 1 W/m² | - |
| 1777509303 | 3.89° C | 72% | 1015.7 hPa | 0 mm | - | 6 W/m² | - |
| 1777509000 | 3.89° C | 71% | 1015.6 hPa | 0 mm | - | 7 W/m² | - |
| 1777508697 | 3.89° C | 72% | 1015.5 hPa | 0 mm | - | 9 W/m² | - |
| 1777508394 | 3.89° C | 71% | 1015.5 hPa | 0 mm | - | 13 W/m² | - |
| 1777508091 | 4.44° C | 71% | 1015.5 hPa | 0 mm | - | 17 W/m² | - |
| 1777507485 | 4.44° C | 72% | 1015.3 hPa | 0 mm | - | 25 W/m² | - |
| 1777505362 | 5° C | 70% | 1015.3 hPa | 0 mm | - | 63 W/m² | - |
| 1777502631 | 5° C | 74% | 1015.2 hPa | 0 mm | - | 87 W/m² | - |
* Rain latest hour (hover to see other rain measurements)
** Current wind speed in m/s (hover to see current wind gust speed)